Air Force Academy, CO

11:11 PM MDT on September 21, 2017 (GMT -0600)
Usaf Academy

Weather History for KAFF - July, 2013

Change the Weather History Date:

Saturday, July 27, 2013

  Actual Average Record
Temperature  
Mean Temperature 68 °F -  
Max Temperature 86 °F 79 °F 90 °F (2010)
Min Temperature 51 °F 53 °F 48 °F (1996)
Cooling Degree Days 3    
Growing Degree Days 18 (Base 50)    
Moisture  
Dew Point 48 °F    
Average Humidity 51    
Maximum Humidity 82    
Minimum Humidity 17    
Precipitation  
Precipitation 0.00 in - - ()
Sea Level Pressure  
Sea Level Pressure 30.06 in    
Wind  
Wind Speed 8 mph (North)    
Max Wind Speed 17 mph    
Max Gust Speed 29 mph    
Visibility 10 miles    
Events Rain    
Averages and records for this station are not official NWS values.
T = Trace of Precipitation, MM = Missing Value Source: NWS Daily Summary

Daily Weather History Graph

Daily Weather History Graph

Search for Another Location

Airport or City:

Trip Planner

Search our weather history database for the weather conditions in past years. The results will help you decide how hot, cold, wet, or windy it might be!

Date:

Astronomy

Jul. 27, 2013 Rise Set
Actual Time 5:55 AM MDT 8:15 PM MDT
Civil Twilight 5:25 AM MDT 8:45 PM MDT
Nautical Twilight 4:48 AM MDT 9:22 PM MDT
Astronomical Twilight 4:07 AM MDT 10:02 PM MDT
Moon 11:07 PM MDT (7/27) 11:35 AM MDT (7/27)
Length of Visible Light 15h 19m
Length of Day
14h 19m
Waning Gibbous, 70% of the Moon is Illuminated
Jul 27
Waning Gibbous
Jul 29
Last Quarter
Aug 6
New
Aug 14
First Quarter
Aug 20
Full

Hourly Weather History & Observations

Time (MDT) Temp. Dew Point Humidity Pressure Visibility Wind Dir Wind Speed Gust Speed Precip Events Conditions
12:58 AM 60.3 °F 46.6 °F 61% 30.09 in 10.0 mi ESE 5.8 mph - N/A   Clear
1:54 AM 59.0 °F 46.4 °F 63% 30.32 in 10.0 mi SSE 3.5 mph - N/A   Clear
2:54 AM 53.6 °F 46.4 °F 77% 30.30 in 10.0 mi North 4.6 mph - N/A   Clear
3:58 AM 51.6 °F 45.9 °F 81% 30.02 in 10.0 mi NNW 5.8 mph - N/A   Clear
4:58 AM 51.1 °F 45.7 °F 82% 30.02 in 10.0 mi North 5.8 mph - N/A   Clear
5:58 AM 54.0 °F 46.2 °F 75% 30.00 in 10.0 mi North 8.1 mph - N/A   Clear
6:58 AM 62.1 °F 47.5 °F 59% 29.95 in 10.0 mi NNE 4.6 mph - N/A   Clear
7:58 AM 73.4 °F 45.5 °F 37% 29.93 in 10.0 mi Variable 3.5 mph - N/A   Clear
8:54 AM 77.0 °F 44.6 °F 32% 30.20 in 10.0 mi North 3.5 mph - N/A   Light Drizzle
8:58 AM 77.0 °F 44.6 °F 32% 29.91 in 10.0 mi NNW 3.5 mph - N/A   Light Drizzle
9:58 AM 81.9 °F 40.5 °F 23% 29.88 in 10.0 mi Variable 3.5 mph - 0.00 in   Light Drizzle
10:14 AM 84.2 °F 35.6 °F 18% 30.18 in 10.0 mi North 6.9 mph - N/A   Clear
10:35 AM 84.2 °F 35.6 °F 18% 30.17 in 10.0 mi Variable 3.5 mph - N/A   Light Drizzle
10:44 AM 84.2 °F 35.6 °F 18% 30.17 in 10.0 mi Variable 2.3 mph - N/A   Clear
10:58 AM 84.6 °F 36.3 °F 18% 29.87 in 10.0 mi Variable 6.9 mph - 0.00 in   Clear
11:58 AM 83.3 °F 36.3 °F 19% 29.86 in 10.0 mi NNE 9.2 mph - N/A   Partly Cloudy
12:58 PM 85.6 °F 35.4 °F 17% 29.86 in 10.0 mi North 12.7 mph 20.7 mph N/A   Mostly Cloudy
1:10 PM 78.8 °F 53.6 °F 42% 30.16 in 10.0 mi NNW 16.1 mph 28.8 mph N/A   Light Drizzle
1:58 PM 74.1 °F 56.1 °F 53% 30.16 in 10.0 mi NE 13.8 mph - 0.00 in   Light Drizzle
2:20 PM 77.0 °F 50.0 °F 39% 30.16 in 10.0 mi NNW 17.3 mph - N/A   Partly Cloudy
2:27 PM 75.2 °F 51.8 °F 44% 30.17 in 10.0 mi NW 15.0 mph - N/A Rain Light Rain
2:47 PM 75.2 °F 44.6 °F 34% 30.17 in 10.0 mi WNW 16.1 mph - N/A   Light Drizzle
2:58 PM 73.4 °F 53.6 °F 50% 29.96 in 10.0 mi WNW 10.4 mph - 0.00 in Rain Light Rain
3:11 PM 73.4 °F 46.4 °F 38% 30.19 in 10.0 mi WNW 4.6 mph - N/A   Partly Cloudy
3:43 PM 73.4 °F 46.4 °F 38% 30.18 in 10.0 mi SSE 10.4 mph - N/A   Light Drizzle
3:58 PM 73.0 °F 50.7 °F 45% 29.95 in 10.0 mi SSE 9.2 mph - 0.00 in Rain Light Rain
4:00 PM 73.4 °F 48.2 °F 41% 30.17 in 10.0 mi SE 8.1 mph - N/A   Partly Cloudy
4:58 PM 78.3 °F 43.5 °F 29% 29.90 in 10.0 mi Variable 3.5 mph - 0.00 in   Partly Cloudy
5:58 PM 77.4 °F 43.2 °F 30% 29.88 in 10.0 mi North 3.5 mph - N/A   Clear
6:58 PM 72.7 °F 48.7 °F 43% 29.87 in 10.0 mi NNW 10.4 mph - N/A   Partly Cloudy
7:16 PM 71.6 °F 51.8 °F 50% 30.15 in 10.0 mi NNW 17.3 mph 20.7 mph N/A Rain Light Rain
7:51 PM 66.2 °F 55.4 °F 68% 30.15 in 10.0 mi NNW 15.0 mph - N/A   Scattered Clouds
7:58 PM 65.5 °F 56.3 °F 72% 29.86 in 10.0 mi NNW 16.1 mph - 0.00 in   Scattered Clouds
7:59 PM 66.2 °F 55.4 °F 68% 30.15 in 10.0 mi NNW 15.0 mph - N/A Rain Light Rain
8:07 PM 64.4 °F 55.4 °F 73% 30.14 in 10.0 mi NNW 15.0 mph - N/A   Partly Cloudy
8:58 PM 63.7 °F 55.9 °F 76% 29.91 in 10.0 mi North 11.5 mph 21.9 mph 0.00 in   Mostly Cloudy
9:12 PM 62.6 °F 55.4 °F 77% 30.19 in 10.0 mi North 13.8 mph - N/A Rain Light Rain
9:23 PM 62.6 °F 55.4 °F 77% 30.19 in 10.0 mi NNW 17.3 mph 20.7 mph N/A   Scattered Clouds
9:58 PM 62.1 °F 54.0 °F 75% 29.92 in 10.0 mi North 12.7 mph - 0.00 in   Mostly Cloudy
9:59 PM 62.6 °F 53.6 °F 72% 30.21 in 10.0 mi North 11.5 mph - N/A Rain Light Rain
10:08 PM 60.8 °F 53.6 °F 77% 30.22 in 10.0 mi NNW 13.8 mph - N/A   Mostly Cloudy
10:58 PM 60.8 °F 53.2 °F 76% 29.91 in 10.0 mi North 11.5 mph - 0.00 in   Scattered Clouds
11:58 PM 60.4 °F 54.0 °F 79% 29.91 in 10.0 mi SSE 4.6 mph - N/A   Mostly Cloudy